Location: Newark
(9.4667°S, 159.8167°E)
Time: 05:21:33
(UTC+00:00)

Courier 1B Rocket - Pass Details

Date: 20 November 2019
Orbit: 920 x 1202 km, 28.2° (Epoch: 05 December)

Event Time Altitude Azimuth Distance (km) Brightness Sun altitude
Rises 19:59:17 0° 228° (SW) 3,650 7.7 15.5°
Reaches altitude 10° 20:02:33 10° 214° (SW) 2,666 7.2 16.3°
Maximum altitude 20:07:31 23° 163° (SSE) 1,846 7.1 17.5°
Drops below altitude 10° 20:12:23 10° 111° (ESE) 2,609 9.8 18.6°
Sets 20:15:32 0° 97° (E) 3,553 9.5 19.4°
